Location: Krasnoyarskiy Pitomnik
(51.1333°N, 71.6167°E)
Time: 09:26:01
(UTC+00:00)

Landsat 5 - Visible Passes

Search period start: 09 December 2023 00:00
Search period end: 19 December 2023 00:00
Orbit: 521 x 636 km, 98.1° (Epoch: 08 December)

Date Brightness Start Highest point End Pass type
(mag) Time Alt. Az. Time Alt. Az. Time Alt. Az.
12 Dec 6.5 01:24:01 10° ENE 01:24:40 10° NE 01:25:19 10° NE visible
13 Dec 6.3 01:27:51 10° ENE 01:29:09 11° NE 01:30:29 10° NE visible
14 Dec 6.3 01:31:55 10° ENE 01:33:39 12° NE 01:35:24 10° NNE visible
15 Dec 6.2 01:36:06 10° E 01:38:08 13° NE 01:40:13 10° NNE visible
16 Dec 6.2 01:40:19 10° E 01:42:38 14° NE 01:44:59 10° NNE visible
17 Dec 6.2 01:44:33 10° E 01:47:07 16° NE 01:49:42 10° NNE visible
18 Dec 6.1 01:48:50 10° E 01:51:36 17° ENE 01:54:25 10° NNE visible
